CAPE
0 0 0 0 0 0 0 0 0 0 0 0 0 1 9 0 2 3 5 879 1334 1892 1999 1886 2340 2233 1955 1697 1575 1403 1312 1314 1359 1354 1424 1446 1391 1374 1364 1459 1666 1719 1140 931 773 552 324 140 87
0 0 0 0 0 0 0 0 0 0 0 0 0 25 220 17 80 498 831 1190 1496 1907 1875 1821 2197 2201 1926 1650 1480 1366 1257 1224 1268 1333 1474 1535 1438 1441 1476 1667 1820 1515 1035 930 827 608 273 125 118
0 0 0 0 0 0 0 0 0 0 0 0 0 16 496 1001 1406 331 862 1150 1666 1838 1838 1876 2269 2153 1896 1658 1448 1304 1173 1194 1279 1470 1579 1516 1495 1508 1652 1850 1867 1366 1148 991 852 583 264 151 111
0 0 0 0 0 0 0 0 0 0 0 0 0 0 0 603 1104 1252 1267 1273 1667 1871 1785 2215 2190 2062 1888 1724 1497 1344 1161 1364 1451 1658 1601 1474 1572 1540 1556 1698 1714 1535 1141 1050 779 355 220 140 59
0 0 0 0 0 0 0 0 0 0 0 0 0 0 0 1348 1739 1593 1208 1327 1629 1838 1730 2052 2036 2000 1929 1762 1474 1385 1178 1485 1630 1659 1536 1481 1534 1583 1645 1741 1744 1627 1207 832 326 228 172 110 33
0 0 0 0 0 0 0 0 0 0 0 0 0 0 146 1519 1691 1481 1224 971 1351 1700 1972 1767 2033 1921 1904 1780 1619 1337 1162 1413 1657 1581 1481 1486 1532 1569 1591 1608 1568 1336 772 336 239 186 103 59 17
0 0 0 0 0 0 0 0 0 0 0 0 0 0 0 20 1568 1422 904 711 1065 1733 1749 1677 1721 1552 1934 1809 1536 1359 1170 1227 1526 1511 1328 1509 1537 1514 1471 1361 1291 1048 843 650 330 194 95 31 12
0 0 0 0 0 0 0 0 0 0 0 0 0 0 0 0 1560 1091 759 1096 995 1593 1654 1544 1525 1413 1205 1501 1661 1470 1353 1239 1400 1469 1405 1381 1528 1439 1384 1097 1156 938 706 490 315 182 72 7 0
0 0 0 0 0 0 0 0 0 0 0 0 0 0 0 739 1565 1288 1155 1394 1384 1333 1476 1423 1436 1165 1082 1014 1331 1454 1413 1346 1426 1466 1385 1122 998 1035 1111 918 1226 911 558 404 242 146 25 0 0
0 0 0 0 0 0 0 0 0 0 0 0 0 0 0 0 242 1313 1324 1393 1406 1306 1290 1329 1139 1117 992 855 1109 959 974 1028 909 1002 1068 740 729 634 754 860 1088 819 492 275 215 114 44 6 0
0 0 0 0 0 0 0 0 0 0 0 0 0 0 0 0 0 0 97 1385 1459 1330 1177 1238 1107 1001 933 919 849 853 639 760 699 739 731 578 454 662 585 574 728 403 465 51 65 18 0 0 0
0 0 0 0 0 0 0 0 0 0 0 0 0 0 0 0 0 0 0 0 1664 1552 1303 1137 1092 981 936 983 837 822 467 372 405 330 369 243 285 324 208 318 276 104 60 0 0 0 0 0 0
0 0 0 0 0 0 0 0 0 0 0 0 0 0 0 0 0 0 0 0 726 1623 1438 1188 1094 977 1069 940 784 712 490 426 324 359 201 249 164 204 110 159 98 4 0 0 0 0 0 0 0
0 0 0 0 0 0 0 0 0 0 0 0 0 0 0 0 0 0 0 0 0 1436 1353 1045 1024 1031 1008 816 697 671 474 442 338 310 164 28 7 59 46 27 10 0 0 0 0 0 0 0 0
0 0 0 0 0 0 0 0 0 0 0 0 0 0 0 0 0 0 0 0 0 1093 1264 739 818 722 739 619 613 613 510 314 230 209 65 4 0 19 67 0 0 0 0 0 0 0 0 0 0
0 0 0 0 0 0 0 0 0 0 0 0 0 0 0 0 0 0 0 0 0 0 583 818 860 719 583 441 442 285 221 97 93 101 15 0 2 0 27 26 0 0 0 0 0 0 0 40 37
0 0 0 0 0 0 0 0 0 0 0 0 0 0 0 0 0 0 0 0 0 0 0 497 651 377 654 92 18 0 5 0 2 16 0 0 9 3 14 40 38 0 0 0 0 55 92 116 5
0 0 0 0 0 0 0 0 0 0 0 0 0 0 0 0 0 0 0 0 0 0 0 467 462 140 246 25 16 0 0 0 0 0 0 0 0 106 4 8 32 0 78 139 255 186 1 0 0
0 0 0 0 0 0 0 0 0 0 0 0 0 0 0 0 0 0 0 0 0 0 170 559 441 214 109 131 89 43 0 0 0 0 0 0 0 53 178 75 0 71 430 376 311 24 0 0 0
0 0 0 0 0 0 0 0 0 0 0 0 0 0 0 0 0 0 0 0 0 0 199 759 651 382 236 155 207 128 33 47 49 3 10 0 0 7 195 187 216 319 386 242 92 1 0 0 0
0 0 0 0 0 0 0 0 0 0 0 0 0 0 0 0 0 0 0 0 0 0 244 1111 999 602 447 379 379 553 326 271 233 121 34 3 0 16 161 142 473 355 333 197 113 0 0 0 0
0 0 0 0 0 0 0 0 0 0 0 0 0 0 0 0 0 0 0 0 0 0 12 1584 1363 984 653 640 615 509 777 333 272 468 173 36 3 69 207 369 500 423 212 102 35 0 0 0 0
0 0 0 0 0 0 0 0 0 0 0 0 0 0 0 0 0 0 0 0 0 0 0 1457 1756 1492 1040 757 662 449 675 641 435 405 387 156 86 101 487 533 450 267 56 4 0 0 0 0 0
0 0 0 0 0 0 0 0 0 0 0 0 0 0 0 0 0 0 0 0 0 0 0 58 2226 1921 1410 978 768 428 502 655 852 709 489 305 146 195 603 533 271 12 0 0 0 0 0 0 0
0 0 0 0 0 0 0 0 0 0 0 0 0 0 0 0 0 0 0 0 0 0 0 0 1594 2255 1671 1252 949 639 497 637 1011 916 617 422 258 462 550 271 16 0 0 0 0 0 0 0 0
0 0 0 0 0 0 0 0 0 0 0 0 0 0 0 0 0 0 0 0 0 0 0 0 176 2209 1968 1446 1224 876 512 203 851 901 706 516 495 584 278 78 1 0 0 0 0 0 0 0 0
0 0 0 0 0 2 0 0 0 0 0 0 0 0 0 0 0 0 0 0 0 0 0 0 0 1200 2187 1811 1410 1176 859 510 932 817 641 575 565 347 106 0 0 0 0 0 0 0 0 0 0
0 0 0 0 1 0 0 0 0 0 0 0 0 0 0 0 0 0 0 0 0 0 0 0 0 5 2046 2013 1673 1424 1407 942 1063 738 553 572 522 195 0 0 0 0 0 0 0 0 0 0 0
0 0 0 10 13 24 4 0 0 0 0 0 0 0 0 0 0 0 0 0 0 0 0 0 0 279 1395 2130 1912 1675 1738 1285 1098 722 501 623 269 26 0 0 0 0 0 0 0 0 0 0 0
0 0 12 0 0 54 0 0 0 0 0 0 0 0 0 0 0 0 0 0 0 0 0 0 0 103 1540 2143 2078 1796 1569 1165 1114 833 734 529 86 0 1 0 0 0 0 0 0 0 0 0 0
CIN
0 0 0 0 0 0 0 0 0 0 0 0 -17 -69 -210 0 -287 -95 -723 -714 -712 -575 -415 -342 -229 -234 -230 -262 -271 -271 -282 -254 -217 -187 -145 -138 -124 -108 -103 -74 -18 0 -70 -100 -115 -149 -217 -326 -363
0 0 0 0 0 0 0 0 0 0 0 0 0 -117 -151 -101 -373 -590 -708 -729 -689 -621 -483 -394 -287 -258 -252 -279 -303 -317 -320 -294 -260 -214 -161 -157 -144 -116 -89 -46 -9 -24 -94 -109 -117 -149 -260 -368 -356
0 0 0 0 0 0 0 0 0 0 0 0 0 -9 -85 -94 -301 -593 -704 -757 -683 -583 -506 -420 -288 -273 -273 -293 -305 -331 -353 -324 -274 -202 -159 -171 -155 -126 -73 -35 -18 -68 -80 -99 -124 -172 -290 -358 -382
0 0 0 0 0 0 0 0 0 0 0 0 0 0 0 -209 -335 -497 -721 -778 -688 -594 -538 -371 -311 -291 -271 -295 -303 -328 -356 -292 -255 -180 -164 -181 -157 -135 -105 -67 -46 -61 -109 -102 -142 -252 -318 -373 -438
0 0 0 0 0 0 0 0 0 0 0 0 0 0 0 -278 -515 -662 -728 -707 -720 -630 -561 -405 -374 -335 -277 -277 -320 -312 -342 -254 -215 -187 -178 -188 -170 -134 -109 -67 -56 -52 -116 -178 -281 -313 -344 -403 -483
0 0 0 0 0 0 0 0 0 0 0 0 0 0 -125 -355 -486 -596 -724 -745 -688 -624 -513 -467 -359 -345 -301 -282 -299 -313 -332 -260 -203 -193 -181 -175 -161 -138 -117 -104 -90 -110 -205 -312 -326 -349 -406 -445 -498
0 0 0 0 0 0 0 0 0 0 0 0 0 0 0 -81 -337 -489 -602 -662 -647 -540 -509 -468 -427 -386 -260 -277 -322 -328 -333 -301 -222 -211 -219 -175 -160 -144 -142 -154 -158 -182 -205 -239 -311 -358 -417 -472 -516
0 0 0 0 0 0 0 0 0 0 0 0 0 0 0 0 -303 -395 -514 -458 -486 -442 -452 -482 -432 -434 -431 -344 -301 -315 -308 -311 -240 -202 -200 -194 -173 -164 -165 -212 -189 -220 -254 -287 -343 -396 -471 -532 0
0 0 0 0 0 0 0 0 0 0 0 0 0 0 0 -145 -208 -288 -313 -309 -342 -378 -413 -444 -466 -473 -442 -423 -342 -305 -300 -286 -234 -187 -184 -228 -252 -235 -216 -255 -175 -232 -301 -322 -392 -464 -563 0 0
0 0 0 0 0 0 0 0 0 0 0 0 0 0 0 0 -88 -153 -171 -194 -195 -350 -375 -421 -478 -486 -452 -435 -346 -388 -388 -376 -368 -298 -250 -330 -317 -340 -304 -266 -203 -259 -327 -379 -401 -489 -544 -285 0
0 0 0 0 0 0 0 0 0 0 0 0 0 0 0 0 0 0 -205 -139 -141 -147 -193 -312 -402 -516 -513 -459 -428 -393 -464 -433 -440 -392 -351 -378 -405 -314 -352 -357 -298 -383 -342 -593 -542 -70 0 0 0
0 0 0 0 0 0 0 0 0 0 0 0 0 0 0 0 0 0 0 0 -150 -138 -180 -195 -242 -394 -486 -504 -504 -454 -530 -545 -535 -531 -496 -534 -481 -451 -541 -472 -487 -586 -606 0 0 0 0 0 0
0 0 0 0 0 0 0 0 0 0 0 0 0 0 0 0 0 0 0 0 -224 -168 -207 -240 -223 -271 -359 -468 -519 -503 -588 -563 -566 -503 -576 -546 -556 -520 -610 -554 -587 -529 0 0 0 0 0 0 0
0 0 0 0 0 0 0 0 0 0 0 0 0 0 0 0 0 0 0 0 0 -165 -206 -262 -217 -206 -224 -340 -492 -531 -589 -576 -551 -544 -607 -726 -505 -640 -678 -668 -697 0 0 0 0 0 0 0 0
0 0 0 0 0 0 0 0 0 0 0 0 0 0 0 0 0 0 0 0 0 -169 -193 -270 -268 -270 -246 -277 -288 -403 -454 -530 -618 -628 -688 -795 0 -714 -632 -40 0 0 0 0 0 0 0 0 0
0 0 0 0 0 0 0 0 0 0 0 0 0 0 0 0 0 0 0 0 0 0 -218 -238 -219 -267 -287 -300 -297 -376 -458 -580 -649 -710 -813 0 -400 0 -679 -671 0 0 0 0 0 0 0 -334 -281
0 0 0 0 0 0 0 0 0 0 0 0 0 0 0 0 0 0 0 0 0 0 0 -256 -251 -303 -303 -529 -588 0 -313 -47 -388 -719 0 0 -737 -80 -692 -654 -629 0 0 0 0 -386 -318 -284 -327
0 0 0 0 0 0 0 0 0 0 0 0 0 0 0 0 0 0 0 0 0 0 0 -306 -302 -385 -360 -602 -651 0 0 0 0 -133 0 0 0 -567 -476 -703 -648 0 -558 -462 -333 -304 -104 0 0
0 0 0 0 0 0 0 0 0 0 0 0 0 0 0 0 0 0 0 0 0 0 -333 -259 -307 -359 -377 -460 -486 -504 0 0 0 0 0 0 0 -601 -490 -573 0 -585 -328 -315 -296 -409 0 0 0
0 0 0 0 0 0 0 0 0 0 0 0 0 0 0 0 0 0 0 0 0 0 -282 -229 -209 -330 -350 -380 -410 -420 -451 -427 -457 -535 -520 0 0 -443 -461 -481 -530 -407 -330 -367 -385 -44 0 0 0
0 0 0 0 0 0 0 0 0 0 0 0 0 0 0 0 0 0 0 0 0 0 -296 -177 -174 -227 -309 -304 -261 -184 -186 -141 -142 -231 -441 -301 0 -422 -428 -516 -382 -384 -355 -366 -366 0 0 0 0
0 0 0 0 0 0 0 0 0 0 0 0 0 0 0 0 0 0 0 0 0 0 -357 -143 -136 -180 -223 -216 -188 -169 -158 -142 -250 -194 -362 -421 -452 -422 -363 -331 -367 -346 -411 -439 -493 0 0 0 0
0 0 0 0 0 0 0 0 0 0 0 0 0 0 0 0 0 0 0 0 0 0 0 -101 -89 -95 -147 -189 -180 -204 -156 -163 -190 -201 -198 -305 -481 -375 -224 -259 -344 -395 -527 -399 0 0 0 0 0
0 0 0 0 0 0 0 0 0 0 0 0 0 0 0 0 0 0 0 0 0 0 0 -272 -71 -71 -102 -128 -143 -198 -197 -143 -149 -188 -209 -287 -384 -340 -149 -236 -336 -444 0 0 0 0 0 0 0
0 0 0 0 0 0 0 0 0 0 0 0 0 0 0 0 0 0 0 0 0 0 0 0 -111 -49 -96 -119 -134 -136 -170 -124 -130 -216 -243 -280 -307 -191 -184 -287 -511 0 0 0 0 0 0 0 0
0 0 0 0 0 0 0 0 0 0 0 0 0 0 0 0 0 0 0 0 0 0 0 0 -134 -49 -69 -128 -123 -163 -148 -217 -111 -171 -216 -281 -277 -181 -246 -320 -31 0 0 0 0 0 0 0 0
0 0 0 0 0 0 0 0 0 0 0 0 0 0 0 0 0 0 0 0 0 0 0 0 0 -209 -73 -103 -147 -150 -165 -98 -65 -126 -214 -242 -196 -227 -304 0 0 0 0 0 0 0 0 0 0
0 0 0 0 -2 0 0 0 0 0 0 0 0 0 0 0 0 0 0 0 0 0 0 0 0 -309 -118 -101 -108 -127 -84 -87 -73 -138 -179 -175 -156 -288 -1 0 0 0 0 0 0 0 0 0 0
0 0 0 0 -2 0 -4 -2 0 0 0 0 0 0 0 0 0 0 0 0 0 0 0 0 0 -472 -186 -80 -107 -98 -37 -47 -59 -120 -182 -116 -173 -314 0 0 0 0 0 0 0 0 0 0 0
0 0 -1 0 0 0 -10 0 0 0 0 0 0 0 0 0 0 0 0 0 0 0 0 0 0 -300 -154 -96 -113 -85 -67 -66 -41 -71 -99 -83 -207 0 0 0 0 0 0 0 0 0 0 0 0
Wind_Speed
7 7 1 4 4 5 4 7 0 7 5 3 6 6 21 7 9 8 5 13 19 19 16 18 18 19 18 19 20 20 20 19 19 18 17 18 17 17 17 16 15 14 15 14 12 11 11 11 11
5 5 5 3 4 2 6 4 3 5 2 12 10 4 4 7 5 3 9 10 20 20 17 16 20 19 19 19 20 20 21 20 19 19 18 18 17 17 16 15 14 14 13 12 11 10 10 10 10
4 2 4 4 4 6 6 4 2 7 7 4 9 4 4 6 0 9 5 17 19 16 16 16 21 19 19 19 19 20 21 20 20 19 18 18 17 16 15 14 14 14 12 11 10 9 8 9 9
4 5 5 4 9 7 6 1 6 8 7 6 3 12 5 1 4 5 18 22 19 17 15 19 21 19 18 19 19 19 20 20 19 18 17 17 17 16 14 14 13 12 12 10 8 7 7 7 7
4 4 2 2 7 6 6 4 4 5 6 8 5 8 7 4 7 14 15 16 19 16 14 17 22 20 19 19 20 19 20 19 18 18 17 17 17 15 14 13 12 11 11 10 8 7 5 5 5
4 4 2 5 5 6 7 4 4 3 4 10 11 7 7 4 7 9 15 16 15 17 16 17 20 19 18 19 19 19 19 19 18 17 16 16 15 14 13 12 11 11 10 9 8 7 4 3 2
7 5 5 3 3 6 4 4 5 5 5 5 8 4 9 11 5 4 6 5 10 14 17 15 15 17 17 17 18 19 18 18 17 16 16 15 14 13 12 11 11 10 9 8 8 6 4 2 1
5 4 2 3 1 6 4 8 3 3 5 4 4 5 9 18 9 6 7 5 4 8 11 16 13 15 14 11 19 19 19 18 16 15 15 14 14 13 12 10 10 10 9 8 7 6 4 3 2
3 4 2 4 2 6 7 6 1 3 6 5 4 3 5 9 9 8 5 3 4 5 8 11 13 12 12 12 11 16 20 18 17 15 13 10 4 6 9 9 10 10 9 7 7 5 4 4 1
5 4 8 7 4 7 9 6 15 5 11 3 7 1 2 8 6 4 1 2 6 10 11 10 12 13 12 11 9 7 9 8 8 8 9 5 5 4 6 8 10 10 9 8 6 5 6 4 1
2 4 5 6 8 6 6 11 8 6 5 6 8 12 2 4 5 5 6 6 5 5 7 8 9 14 15 11 8 5 5 6 7 10 11 10 7 4 3 3 3 3 7 3 4 3 2 2 2
3 6 1 6 6 6 6 7 8 6 5 6 8 9 3 2 5 6 5 7 10 10 10 7 9 12 13 11 11 10 7 8 7 10 13 8 6 4 5 4 4 4 3 4 4 2 3 4 4
2 3 8 8 9 7 7 7 9 9 10 8 9 8 11 7 5 6 8 7 9 12 14 12 10 10 12 14 12 12 11 10 11 10 11 7 6 6 5 4 4 3 3 3 4 3 3 4 4
4 4 9 7 9 6 7 6 2 8 10 11 6 9 10 11 9 7 6 8 7 11 12 11 13 10 10 9 14 12 12 13 12 10 9 10 7 6 5 4 4 4 4 3 3 3 3 2 2
4 8 9 7 5 5 3 6 5 8 9 10 13 13 8 11 8 11 11 11 9 7 13 15 16 14 11 7 7 8 8 10 11 10 11 11 8 7 7 5 4 4 4 4 2 3 2 1 3
6 4 5 7 6 8 4 9 10 10 5 11 13 13 13 11 11 10 11 10 10 8 11 16 16 18 14 10 6 4 7 8 8 9 10 12 11 9 6 6 6 5 4 4 4 3 1 1 0
5 6 6 11 4 7 2 16 6 9 8 8 9 12 14 14 11 10 11 8 12 11 9 13 16 18 17 12 7 5 6 7 6 8 9 14 12 10 8 6 5 5 4 4 4 2 3 2 1
9 7 8 12 11 15 14 18 13 7 6 9 9 10 11 13 12 11 10 9 8 11 9 13 13 14 14 9 9 5 4 4 4 7 8 12 11 12 9 5 5 5 4 4 3 4 2 3 3
7 9 13 14 15 6 15 15 19 10 7 9 10 10 13 17 15 9 10 9 5 7 7 9 14 14 12 11 12 8 8 6 4 4 6 9 10 10 9 6 5 5 5 6 6 4 5 2 1
6 9 14 18 10 5 13 23 20 8 8 15 18 17 14 13 13 14 10 8 8 7 8 9 13 16 14 12 11 8 7 4 4 5 7 10 12 12 10 8 6 8 5 6 5 6 4 3 3
12 9 14 19 16 5 6 22 11 13 11 14 12 13 10 13 16 16 14 10 7 9 9 11 15 17 14 14 10 7 8 3 5 7 9 10 13 12 11 10 8 7 7 8 6 5 7 4 2
11 12 14 13 11 14 7 19 26 10 7 7 14 15 16 16 15 14 14 9 7 9 7 11 15 17 16 15 14 17 15 11 13 12 9 10 12 11 10 10 10 10 6 7 5 4 4 6 5
6 10 7 12 12 7 3 2 23 3 15 19 15 9 11 13 11 9 9 6 7 4 8 8 13 16 17 19 18 16 16 15 10 9 12 13 12 12 11 10 10 8 5 6 7 6 6 4 4
7 5 8 2 1 7 8 12 29 6 8 6 7 4 4 5 6 7 7 7 5 3 6 7 14 16 16 18 19 19 18 16 11 10 10 8 7 8 10 9 9 7 7 7 6 6 7 6 5
13 6 5 4 1 9 4 8 19 6 12 17 17 7 6 5 7 8 9 8 8 7 2 7 9 16 18 18 20 19 17 16 16 15 11 12 10 10 10 11 10 8 8 8 8 8 8 6 7
11 5 4 6 4 7 8 10 10 10 13 14 8 7 5 6 7 6 7 9 9 6 8 7 9 13 17 20 22 20 16 11 10 12 11 11 12 11 14 12 12 13 12 10 9 8 8 9 8
3 4 6 10 15 11 10 12 10 11 14 7 6 3 5 6 6 7 7 7 8 11 6 8 9 13 16 20 20 18 16 14 12 12 12 10 11 10 13 15 14 14 14 11 11 8 9 10 8
7 3 4 3 6 8 5 7 8 10 8 3 6 7 8 8 10 9 9 11 5 7 10 11 9 14 16 20 19 17 18 16 13 12 13 13 12 15 14 16 16 16 14 12 12 10 11 11 7
4 2 5 4 5 6 9 3 6 7 8 8 8 11 10 9 8 8 9 11 10 9 10 13 9 10 13 16 18 18 16 16 15 15 15 14 14 16 16 17 17 18 17 13 13 11 11 12 10
12 10 4 4 5 6 6 15 17 21 6 7 7 9 11 9 8 9 11 11 11 12 13 13 11 7 15 15 17 18 15 16 16 15 16 15 16 15 17 17 17 17 16 16 16 12 12 11 10
Wind_Direction
329 310 72 42 46 61 271 266 151 308 5 305 158 179 184 157 179 212 313 154 135 142 147 159 154 145 142 140 136 133 131 132 132 132 134 132 131 131 131 131 132 133 133 129 127 124 119 117 116
331 341 42 76 97 283 262 265 195 261 1 314 324 88 234 224 209 112 119 161 148 143 146 159 156 150 148 145 142 139 137 137 138 138 138 135 134 133 134 134 134 136 135 132 129 124 119 118 118
340 40 75 110 157 205 234 210 298 313 322 332 337 318 258 260 73 168 160 149 139 141 148 158 155 154 153 150 146 143 142 142 142 142 142 139 136 135 138 140 142 141 139 135 130 125 124 121 121
27 15 34 114 225 247 226 147 24 352 343 99 300 298 288 247 204 161 148 146 142 143 147 157 155 154 158 153 150 147 147 145 145 144 145 141 138 140 144 143 144 146 144 139 137 132 125 123 124
37 53 60 256 257 274 311 353 10 326 292 313 339 284 280 22 80 128 143 151 146 145 146 157 158 158 162 159 153 151 150 149 148 148 149 146 144 148 148 147 147 147 146 144 144 139 140 137 131
52 88 53 246 272 306 305 298 328 313 330 310 359 308 267 37 114 158 151 157 152 146 150 160 161 162 164 160 155 154 154 153 151 152 153 151 150 151 149 148 147 146 150 151 150 150 151 147 117
114 93 222 239 262 312 272 351 333 335 359 342 311 331 303 0 44 103 111 117 145 147 153 161 157 165 170 164 159 158 157 156 156 154 159 157 155 155 152 150 147 149 154 155 158 162 163 163 208
105 102 225 254 237 275 274 336 263 10 303 312 8 11 324 320 106 76 101 100 130 152 160 161 162 162 171 170 163 161 157 156 157 159 163 165 158 157 155 151 157 160 163 167 170 177 171 208 241
104 60 233 254 192 273 304 336 242 270 259 353 278 128 293 29 64 71 56 79 139 184 172 170 161 163 163 174 170 162 160 159 159 163 166 161 151 157 161 166 167 169 170 178 184 183 202 231 261
108 137 217 210 249 282 292 297 298 314 315 292 299 209 48 55 93 96 64 302 263 202 197 179 171 159 158 169 172 158 162 157 157 163 173 161 160 162 163 176 176 176 178 189 201 200 220 234 183
121 192 233 272 254 267 265 298 273 281 289 252 286 298 96 98 83 90 186 206 226 239 255 212 189 165 160 163 166 164 166 165 168 173 178 185 179 179 167 169 180 181 192 192 205 238 251 237 216
295 250 323 301 326 319 295 300 302 261 236 267 272 284 276 147 171 188 197 232 201 209 196 230 228 183 173 159 165 164 168 177 174 184 184 182 182 180 182 183 185 184 193 194 204 208 248 265 265
214 324 327 285 285 265 273 257 257 286 279 259 263 269 290 282 204 213 224 216 213 202 189 197 209 219 191 173 167 171 169 176 177 183 185 175 178 188 185 194 191 187 186 197 213 213 218 255 295
288 278 280 274 267 248 254 259 278 286 286 305 260 248 267 278 266 156 193 243 232 205 196 180 191 211 220 209 180 175 171 171 176 178 182 177 174 185 193 193 199 199 195 197 209 205 228 252 303
278 325 321 291 284 282 290 312 267 259 303 299 304 307 268 267 264 262 171 208 217 208 199 186 188 192 203 218 211 180 176 179 174 173 175 178 173 189 191 194 195 201 200 198 203 230 242 279 286
351 16 347 279 324 276 113 280 280 288 331 310 309 312 311 292 278 246 257 188 225 212 188 201 195 191 180 183 198 197 191 188 184 177 171 178 180 190 193 191 206 186 180 173 188 206 262 2 116
354 270 278 304 256 270 213 291 261 296 303 292 300 306 303 302 295 266 246 205 206 221 226 195 189 186 179 163 160 182 207 200 184 181 186 183 184 193 194 197 211 170 176 187 191 172 140 149 147
277 273 267 276 292 296 283 273 274 261 263 269 282 283 292 298 286 287 293 249 196 223 231 185 180 174 169 149 148 157 174 222 208 202 194 187 190 191 197 192 201 171 166 199 169 132 91 123 167
251 270 263 275 280 269 274 273 283 264 280 280 259 268 275 277 280 272 277 269 194 217 198 174 164 165 155 159 165 166 192 197 228 217 204 191 197 196 195 207 176 172 175 185 160 116 142 105 89
253 267 281 280 252 239 292 285 276 277 256 255 268 271 252 266 282 286 272 255 226 186 205 169 177 170 172 171 173 164 171 220 199 208 195 198 198 198 191 195 182 175 165 151 150 156 130 90 20
287 269 287 275 296 264 309 282 282 273 250 262 248 246 255 253 268 275 272 255 191 196 192 180 181 181 180 178 163 129 143 137 212 207 197 204 200 199 195 182 168 167 172 169 166 160 130 131 32
279 271 282 285 293 286 153 288 293 259 277 266 266 263 254 258 255 255 270 280 242 220 201 186 184 184 180 179 173 175 166 184 206 208 186 191 191 198 190 176 163 174 166 151 152 143 130 125 139
267 310 296 281 263 284 142 239 277 11 290 279 279 248 255 254 245 255 264 259 278 184 199 194 193 191 190 181 185 184 187 189 194 203 204 204 170 182 185 171 158 160 138 131 137 131 130 113 136
288 323 298 309 127 251 204 196 277 216 220 265 269 271 281 295 315 297 292 314 317 77 225 220 182 195 195 197 192 191 194 198 192 185 182 190 168 164 180 155 150 131 125 131 122 109 111 111 99
346 9 316 304 251 248 214 213 254 263 260 258 272 261 214 285 307 322 329 322 327 328 236 235 215 197 192 197 200 202 203 201 194 183 178 172 170 174 166 145 140 129 121 115 115 107 100 98 97
279 183 199 272 267 279 330 256 255 231 254 250 237 207 209 275 271 281 295 308 314 307 303 202 233 216 199 196 205 202 200 207 198 191 177 185 178 171 161 149 137 130 121 116 110 100 97 98 94
311 278 227 273 270 264 228 263 296 262 270 263 185 186 280 296 320 307 311 295 302 310 302 291 217 230 208 203 203 208 197 198 194 186 180 180 164 156 152 138 135 125 117 116 113 107 104 94 96
186 247 338 318 278 269 244 267 253 279 267 271 16 342 328 327 327 322 316 309 276 276 294 290 255 233 211 202 202 206 199 188 176 169 181 175 165 150 149 137 136 121 116 115 113 109 105 101 91
258 245 239 218 237 288 298 250 326 13 34 19 348 339 325 304 293 300 302 302 306 291 282 277 268 224 219 204 201 200 196 184 172 177 174 172 161 152 148 143 136 127 123 117 104 102 108 99 98
245 250 239 245 251 250 279 277 238 267 36 8 332 314 304 308 307 311 311 309 306 295 285 272 265 219 227 203 194 192 178 182 175 176 164 156 149 148 141 140 137 126 120 119 118 118 103 107 106